Showing default

BSAT-4B, 46112

Orbit data source: Space-Track

BSAT-4B, 46112 is a payload satellite owned by BSAT (JP) in GEO that was launched on Sat, 15 Aug 2020 UTC via an ARIANE 5ECA+ launch vehicle from the French Guiana (FRGUI). Payload-class satellites include a variety of spacecraft equipped with specific instruments for various scientific and technological missions. These include communications satellites like Starlink; space stations such as the ISS; scientific satellites like the Hubble; Earth observation satellites from companies like Planet Labs, Umbra, and HawkEye 360; GPS; miniature CubeSats for education and research; and military/defense satellites.

Not visible in the next 10 days
Identifier
46112, 2020-056A
Orbit
GEO
Country
Flag of JPJP / JPN
Related business
Manufacturer
Maxar Space Sol
Mission
Operational Commercial Communications
Bus & Motor
LS-1300-140, R-4D
Mass
3,530 kg wet, ~1,800 kg dry
Launch date (UTC)
2020-08-15 (6 years ago)
Launch vehicle
ARIANE 5ECA+
Launch site
French Guiana (FRGUI)
Object type
Payload
Rocket body
Debris
Shape & HBR
Box + 2 Pan, Unknown HBR
Radar Cross Section
33.343 m², Large (>1 m²)

Expand to show TLE details & history
Last TLE update: 2 days ago

TLE from 2 days ago
0 BSAT-4B
1 46112U 20056A   26171.41377874  .00000000  00000-0  00000+0 0  9994
2 46112   0.0101 187.4801 0004200 288.0580  51.8829  1.00268744 21428
Epoch: 2026-06-20T09:55Z
TLE epoch observation values (Epoch: 2026-06-20T09:55:50.483Z)
Latitude
-0.00247°
Longitude
109.88224°
Altitude
35,776.033 km
Speed
3.075 km/s
True Right ascension
11h 09m 53s
True Declination
0° 00' 09"
Sunlit
Object was in daylight at epoch
Visualization orbit readout
Latitude
Unknown
Longitude
Unknown
Altitude
Unknown
Speed
Unknown
Apparent Right ascension
Unknown
Apparent Declination
Unknown
Sunlit
N/A
Visualization observer readout
Local Sidereal Time
21:25:12
Azimuth
Unknown
Elevation
Unknown
Doppler factor
Unknown
Orbital elements
Apogee altitude
35,806.228 km
Perigee altitude
35,770.808 km
Semi-major axis
42,166.655 km
Eccentricity
0.00042
Inclination
0.0101°
RAAN
187.4801°
Arg. of periapsis
288.058°
True anomaly
51.92078°
Mean anomaly
51.8829°
Eccentric anomaly
51.90184°
Mean motion
0.25066 °/min
Orbital period
1,436.19 mins
BSTAR
0
Loading maneuver chart data...
Computing Atmospheric mass density...
Loading historical data...
Loading historical data...
Loading historical data...
Loading historical data...
Loading historical data...
Loading historical data...
Loading historical data...
Other satellites on launch #56 in the year 2020 (2020-08-15 UTC)

Documentation

Showing up to 5 results
|